When you browse on this site, cookies collect data to enhance your experience and personalize the content and advertising you see.
Visit our Privacy Policy to learn more. By continuing to use the site, you agree to this use of cookies and data.
EN

Hourly Weather Trashigang

Today, 25 September, Friday

Time Temperature Precipitation Wind Pressure Humidity
00:00 +20°C° 0 mm 1 mps 626 mmHg 94%
01:00 +20°C° 0 mm 1 mps 625 mmHg 94%
02:00 +19°C° 0 mm 1 mps 625 mmHg 94%
03:00 +17°C° 0 mm 0 mps 624 mmHg 94%
04:00 +17°C° 0.1 mm 0 mps 624 mmHg 94%
05:00 +18°C° 0.1 mm 0 mps 625 mmHg 94%
06:00 +18°C° 0.1 mm 0 mps 625 mmHg 94%
07:00 +18°C° 0.9 mm 0 mps 625 mmHg 94%
08:00 +19°C° 0.9 mm 0 mps 626 mmHg 93%
09:00 +19°C° 0.9 mm 0 mps 626 mmHg 93%
10:00 +22°C° 0.3 mm 1 mps 626 mmHg 91%
11:00 +23°C° 0.3 mm 1 mps 626 mmHg 89%
12:00 +24°C° 0.3 mm 2 mps 626 mmHg 87%
13:00 +23°C° 1 mm 1 mps 625 mmHg 90%
14:00 +22°C° 1 mm 1 mps 624 mmHg 94%
15:00 +22°C° 1 mm 1 mps 623 mmHg 98%
16:00 +21°C° 0.3 mm 1 mps 624 mmHg 98%
17:00 +19°C° 0.3 mm 0 mps 624 mmHg 98%
18:00 +19°C° 0.3 mm 0 mps 624 mmHg 99%
19:00 +19°C° 0.1 mm 0 mps 624 mmHg 98%
20:00 +19°C° 0.1 mm 0 mps 625 mmHg 98%
21:00 +18°C° 0.1 mm 0 mps 625 mmHg 98%
22:00 +18°C° 0.5 mm 0 mps 625 mmHg 98%
23:00 +18°C° 0.5 mm 0 mps 625 mmHg 99%

Tomorrow, 26 September, Saturday

Time Temperature Precipitation Wind Pressure Humidity
00:00 +18°C° 0.5 mm 0 mps 625 mmHg 99%
01:00 +18°C° 2.3 mm 0 mps 624 mmHg 99%
02:00 +18°C° 2.3 mm 0 mps 624 mmHg 98%
03:00 +18°C° 2.3 mm 0 mps 624 mmHg 98%
04:00 +18°C° 2 mm 0 mps 624 mmHg 98%
05:00 +18°C° 2 mm 0 mps 624 mmHg 98%
06:00 +18°C° 2 mm 0 mps 624 mmHg 99%
07:00 +19°C° 0.7 mm 0 mps 625 mmHg 97%
08:00 +19°C° 0.7 mm 0 mps 625 mmHg 96%
09:00 +22°C° 0.7 mm 1 mps 626 mmHg 95%
10:00 +22°C° 0.4 mm 1 mps 626 mmHg 93%
11:00 +23°C° 0.4 mm 1 mps 626 mmHg 90%
12:00 +24°C° 0.4 mm 1 mps 626 mmHg 87%
13:00 +24°C° 0.6 mm 1 mps 625 mmHg 88%
14:00 +23°C° 0.6 mm 1 mps 625 mmHg 89%
15:00 +23°C° 0.6 mm 1 mps 624 mmHg 90%
16:00 +22°C° 0.6 mm 1 mps 624 mmHg 93%
17:00 +21°C° 0.6 mm 1 mps 624 mmHg 95%
18:00 +19°C° 0.6 mm 0 mps 624 mmHg 98%
19:00 +18°C° 0.3 mm 0 mps 625 mmHg 97%
20:00 +18°C° 0.3 mm 0 mps 625 mmHg 97%
21:00 +18°C° 0.3 mm 0 mps 626 mmHg 96%
22:00 +18°C° 0.1 mm 0 mps 626 mmHg 96%
23:00 +17°C° 0.1 mm 0 mps 626 mmHg 96%

Day after tomorrow, 27 September, Sunday

Time Temperature Precipitation Wind Pressure Humidity
00:00 +17°C° 0.1 mm 0 mps 626 mmHg 96%
01:00 +17°C° 0.1 mm 0 mps 625 mmHg 96%
02:00 +17°C° 0.1 mm 0 mps 625 mmHg 96%
03:00 +17°C° 0.1 mm 0 mps 625 mmHg 96%
04:00 +17°C° 0.2 mm 0 mps 625 mmHg 96%
05:00 +17°C° 0.2 mm 0 mps 625 mmHg 96%
06:00 +17°C° 0.2 mm 0 mps 626 mmHg 96%
07:00 +18°C° 0.2 mm 0 mps 626 mmHg 95%
08:00 +19°C° 0.2 mm 0 mps 627 mmHg 94%
09:00 +19°C° 0.2 mm 0 mps 627 mmHg 93%
10:00 +20°C° 0.2 mm 0 mps 627 mmHg 90%
11:00 +23°C° 0.2 mm 1 mps 627 mmHg 88%
12:00 +23°C° 0.2 mm 1 mps 627 mmHg 85%
13:00 +23°C° 0.4 mm 1 mps 627 mmHg 89%
14:00 +22°C° 0.4 mm 1 mps 626 mmHg 93%
15:00 +21°C° 0.4 mm 1 mps 625 mmHg 97%
16:00 +21°C° 0.1 mm 1 mps 625 mmHg 97%
17:00 +21°C° 0.1 mm 1 mps 625 mmHg 96%
18:00 +18°C° 0.1 mm 0 mps 625 mmHg 96%
19:00 +18°C° 0 mm 0 mps 626 mmHg 95%
20:00 +17°C° 0 mm 0 mps 626 mmHg 95%
21:00 +19°C° 0 mm 1 mps 626 mmHg 94%
22:00 +19°C° 0 mm 1 mps 626 mmHg 94%
23:00 +19°C° 0 mm 1 mps 627 mmHg 94%

28 September, Monday

Time Temperature Precipitation Wind Pressure Humidity
00:00 +19°C° 0 mm 1 mps 627 mmHg 93%
01:00 +19°C° 0 mm 1 mps 626 mmHg 93%
02:00 +18°C° 0 mm 1 mps 626 mmHg 93%
03:00 +18°C° 0 mm 1 mps 625 mmHg 93%
04:00 +18°C° 0 mm 1 mps 626 mmHg 93%
05:00 +18°C° 0 mm 1 mps 626 mmHg 93%
06:00 +18°C° 0 mm 1 mps 626 mmHg 93%
07:00 +20°C° 0 mm 1 mps 627 mmHg 86%
08:00 +23°C° 0 mm 1 mps 628 mmHg 79%
09:00 +25°C° 0 mm 1 mps 629 mmHg 72%
10:00 +26°C° 0.1 mm 1 mps 629 mmHg 70%
11:00 +26°C° 0.1 mm 2 mps 628 mmHg 69%
12:00 +27°C° 0.1 mm 2 mps 628 mmHg 67%
13:00 +27°C° 0.2 mm 2 mps 627 mmHg 69%
14:00 +26°C° 0.2 mm 2 mps 627 mmHg 71%
15:00 +26°C° 0.2 mm 2 mps 626 mmHg 73%
16:00 +24°C° 0.1 mm 2 mps 625 mmHg 81%
17:00 +22°C° 0.1 mm 1 mps 625 mmHg 90%
18:00 +19°C° 0.1 mm 0 mps 625 mmHg 99%
19:00 +18°C° 0 mm 0 mps 625 mmHg 98%
20:00 +18°C° 0 mm 0 mps 626 mmHg 96%
21:00 +18°C° 0 mm 0 mps 627 mmHg 95%
22:00 +20°C° 0 mm 1 mps 627 mmHg 94%
23:00 +19°C° 0 mm 1 mps 627 mmHg 92%

29 September, Tuesday

Time Temperature Precipitation Wind Pressure Humidity
00:00 +19°C° 0 mm 1 mps 626 mmHg 91%
01:00 +19°C° 0 mm 1 mps 626 mmHg 90%
02:00 +18°C° 0 mm 1 mps 626 mmHg 89%
03:00 +18°C° 0 mm 1 mps 625 mmHg 87%
04:00 +18°C° 0 mm 1 mps 625 mmHg 87%
05:00 +18°C° 0 mm 1 mps 625 mmHg 86%
06:00 +18°C° 0 mm 1 mps 626 mmHg 85%
07:00 +20°C° 0 mm 1 mps 627 mmHg 77%
08:00 +23°C° 0 mm 1 mps 628 mmHg 68%
09:00 +26°C° 0 mm 1 mps 629 mmHg 60%
10:00 +27°C° 0 mm 1 mps 629 mmHg 58%
11:00 +28°C° 0 mm 2 mps 628 mmHg 57%
12:00 +28°C° 0 mm 2 mps 628 mmHg 55%
13:00 +28°C° 0.1 mm 2 mps 627 mmHg 61%
14:00 +27°C° 0.1 mm 2 mps 626 mmHg 66%
15:00 +26°C° 0.1 mm 2 mps 626 mmHg 71%
16:00 +24°C° 0.1 mm 2 mps 625 mmHg 80%
17:00 +23°C° 0.1 mm 1 mps 625 mmHg 90%
18:00 +19°C° 0.1 mm 0 mps 624 mmHg 99%
19:00 +18°C° 0 mm 0 mps 625 mmHg 98%
20:00 +18°C° 0 mm 0 mps 625 mmHg 97%
21:00 +18°C° 0 mm 0 mps 626 mmHg 96%
22:00 +20°C° 0 mm 1 mps 626 mmHg 94%
23:00 +19°C° 0 mm 1 mps 626 mmHg 93%

30 September, Wednesday

Time Temperature Precipitation Wind Pressure Humidity
00:00 +19°C° 0 mm 1 mps 625 mmHg 92%
01:00 +19°C° 0 mm 1 mps 625 mmHg 91%
02:00 +19°C° 0 mm 1 mps 625 mmHg 90%
03:00 +18°C° 0 mm 1 mps 624 mmHg 88%
04:00 +18°C° 0 mm 1 mps 625 mmHg 88%
05:00 +18°C° 0 mm 1 mps 625 mmHg 87%
06:00 +18°C° 0 mm 1 mps 625 mmHg 86%
07:00 +21°C° 0 mm 1 mps 626 mmHg 78%
08:00 +23°C° 0 mm 1 mps 628 mmHg 70%
09:00 +26°C° 0 mm 1 mps 629 mmHg 62%
10:00 +27°C° 0 mm 1 mps 629 mmHg 61%
11:00 +27°C° 0 mm 2 mps 628 mmHg 59%
12:00 +28°C° 0 mm 2 mps 628 mmHg 57%
13:00 +27°C° 0.3 mm 2 mps 627 mmHg 64%
14:00 +26°C° 0.3 mm 2 mps 626 mmHg 70%
15:00 +25°C° 0.3 mm 2 mps 625 mmHg 76%
16:00 +24°C° 0.1 mm 1 mps 625 mmHg 84%
17:00 +22°C° 0.1 mm 1 mps 624 mmHg 91%
18:00 +18°C° 0.1 mm 0 mps 624 mmHg 98%
19:00 +18°C° 0 mm 0 mps 625 mmHg 98%
20:00 +18°C° 0 mm 0 mps 625 mmHg 97%
21:00 +18°C° 0 mm 0 mps 625 mmHg 96%
22:00 +18°C° 0 mm 0 mps 625 mmHg 95%
23:00 +17°C° 0 mm 0 mps 625 mmHg 95%
Show more